Radiation Dose at Monitoring Post of Fukushima Daini Nuclear Power Station
Date,Time,MP-1(microSv/h),MP-2(microSv/h),MP-3(microSv/h),MP-4(microSv/h),MP-5(microSv/h),MP-6(microSv/h),MP-7(microSv/h),Wind Direction,Wind Velocity(m/s),Rain
2015/09/08,00:00,0.469,0.274,0.488,0.447,0.442,0.218,0.188,north-northwest,8.9,No
2015/09/08,00:10,0.474,0.272,0.485,0.445,0.444,0.217,0.187,north-northwest,9.4,No
2015/09/08,00:20,0.471,0.274,0.488,0.449,0.442,0.218,0.188,north-northwest,9.2,No
2015/09/08,00:30,0.475,0.274,0.487,0.446,0.445,0.216,0.186,north-northwest,9.1,No
2015/09/08,00:40,0.473,0.273,0.486,0.448,0.440,0.218,0.188,north-northwest,8.2,No
2015/09/08,00:50,0.472,0.274,0.488,0.448,0.446,0.217,0.187,north-northwest,7.9,No
2015/09/08,01:00,0.474,0.272,0.483,0.444,0.441,0.217,0.187,north-northwest,9.7,No
2015/09/08,01:10,0.470,0.273,0.490,0.449,0.444,0.217,0.188,north-northwest,8.8,No
2015/09/08,01:20,0.475,0.273,0.485,0.445,0.444,0.217,0.186,northwest,8.7,No
2015/09/08,01:30,0.472,0.272,0.490,0.449,0.441,0.217,0.188,north-northwest,8.1,No
2015/09/08,01:40,0.474,0.273,0.486,0.446,0.444,0.216,0.187,north-northwest,8.3,No
2015/09/08,01:50,0.475,0.272,0.486,0.446,0.441,0.218,0.187,north-northwest,8.9,No
2015/09/08,02:00,0.470,0.275,0.490,0.448,0.444,0.216,0.186,north-northwest,7.5,No
2015/09/08,02:10,0.475,0.272,0.486,0.445,0.441,0.216,0.188,north-northwest,8.1,No
2015/09/08,02:20,0.471,0.274,0.490,0.450,0.444,0.219,0.187,north-northwest,7.5,No
2015/09/08,02:30,0.475,0.272,0.487,0.446,0.443,0.217,0.188,north-northwest,7.6,No
2015/09/08,02:40,0.474,0.274,0.488,0.452,0.443,0.220,0.189,north-northwest,7.6,No
2015/09/08,02:50,0.474,0.275,0.489,0.448,0.445,0.217,0.187,north-northwest,8.3,No
2015/09/08,03:00,0.477,0.274,0.485,0.450,0.444,0.219,0.188,north-northwest,8.6,No
2015/09/08,03:10,0.472,0.274,0.492,0.452,0.447,0.219,0.188,north-northwest,8.6,No
2015/09/08,03:20,0.476,0.273,0.486,0.449,0.442,0.219,0.188,north-northwest,7.9,No
2015/09/08,03:30,0.472,0.274,0.491,0.451,0.446,0.219,0.189,north-northwest,8.3,No
2015/09/08,03:40,0.477,0.273,0.490,0.446,0.441,0.218,0.189,north-northwest,8.9,No
2015/09/08,03:50,0.473,0.277,0.489,0.451,0.446,0.219,0.188,north-northwest,9.2,No
2015/09/08,04:00,0.475,0.274,0.492,0.447,0.445,0.219,0.189,north-northwest,7.6,No
2015/09/08,04:10,0.474,0.276,0.489,0.451,0.443,0.219,0.188,north-northwest,8.2,No
2015/09/08,04:20,0.473,0.274,0.490,0.449,0.446,0.217,0.189,north-northwest,7.6,No
2015/09/08,04:30,0.476,0.273,0.487,0.447,0.444,0.219,0.189,north-northwest,8.6,No
2015/09/08,04:40,0.473,0.274,0.490,0.449,0.444,0.218,0.190,north-northwest,8.4,Yes
2015/09/08,04:50,0.476,0.274,0.489,0.446,0.442,0.218,0.188,north-northwest,9.1,Yes
2015/09/08,05:00,0.472,0.276,0.487,0.450,0.446,0.219,0.188,north-northwest,7.7,Yes
2015/09/08,05:10,0.477,0.274,0.491,0.445,0.441,0.219,0.187,north-northwest,8.3,Yes
2015/09/08,05:20,0.471,0.276,0.485,0.450,0.447,0.220,0.189,north-northwest,8.6,Yes
2015/09/08,05:30,0.472,0.274,0.490,0.446,0.441,0.219,0.188,north-northwest,8.8,Yes
2015/09/08,05:40,0.472,0.275,0.484,0.448,0.445,0.219,0.189,north-northwest,7.7,Yes
2015/09/08,05:50,0.468,0.273,0.489,0.446,0.441,0.218,0.188,north,8.4,Yes
2015/09/08,06:00,0.474,0.276,0.484,0.444,0.442,0.220,0.189,north-northwest,6.9,Yes
2015/09/08,06:10,0.469,0.274,0.488,0.447,0.444,0.220,0.189,north-northwest,6.9,Yes
2015/09/08,06:20,0.475,0.276,0.485,0.444,0.443,0.218,0.187,north-northwest,7.7,Yes
2015/09/08,06:30,0.467,0.275,0.484,0.448,0.445,0.220,0.189,north,7.7,Yes
2015/09/08,06:40,0.473,0.274,0.487,0.444,0.442,0.218,0.188,north,6.7,Yes
2015/09/08,06:50,0.471,0.276,0.482,0.446,0.445,0.220,0.189,north-northwest,7.4,Yes
2015/09/08,07:00,0.472,0.275,0.488,0.444,0.441,0.220,0.189,north-northwest,7.2,Yes
2015/09/08,07:10,0.473,0.278,0.485,0.444,0.446,0.222,0.190,north,7.8,Yes
2015/09/08,07:20,0.471,0.274,0.487,0.445,0.441,0.221,0.190,north,8.3,Yes
2015/09/08,07:30,0.474,0.278,0.483,0.444,0.446,0.221,0.190,north-northwest,7.3,Yes
2015/09/08,07:40,0.468,0.276,0.485,0.448,0.445,0.220,0.190,north,7.8,Yes
2015/09/08,07:50,0.474,0.278,0.485,0.443,0.444,0.221,0.191,north,8.9,Yes
2015/09/08,08:00,0.470,0.276,0.483,0.448,0.445,0.222,0.189,north-northwest,7.5,Yes
2015/09/08,08:10,0.473,0.276,0.487,0.444,0.443,0.220,0.190,north,8.5,Yes
2015/09/08,08:20,0.471,0.276,0.482,0.446,0.447,0.221,0.189,north,7.1,Yes
2015/09/08,08:30,0.468,0.275,0.487,0.446,0.442,0.221,0.189,north,7.1,Yes
2015/09/08,08:40,0.472,0.275,0.483,0.444,0.447,0.220,0.189,north-northwest,7.6,Yes
2015/09/08,08:50,0.468,0.276,0.484,0.446,0.442,0.220,0.191,north-northwest,7.8,Yes
2015/09/08,09:00,0.475,0.278,0.488,0.442,0.447,0.219,0.190,north-northwest,7.7,Yes
2015/09/08,09:10,0.469,0.275,0.484,0.448,0.442,0.222,0.190,north-northwest,8.7,Yes
2015/09/08,09:20,0.473,0.277,0.486,0.442,0.443,0.220,0.191,north-northwest,8.1,Yes
2015/09/08,09:30,0.471,0.276,0.481,0.446,0.444,0.221,0.189,north-northwest,8.5,Yes
2015/09/08,09:40,0.469,0.276,0.486,0.444,0.444,0.220,0.190,north-northwest,8.2,Yes
2015/09/08,09:50,0.469,0.275,0.482,0.442,0.445,0.219,0.189,north-northwest,8.0,Yes
2015/09/08,10:00,0.467,0.275,0.484,0.445,0.442,0.220,0.190,north-northwest,8.1,Yes
2015/09/08,10:10,0.471,0.277,0.484,0.442,0.446,0.220,0.189,north,8.3,Yes
2015/09/08,10:20,0.468,0.274,0.482,0.446,0.443,0.220,0.190,north,8.3,Yes
2015/09/08,10:30,0.470,0.277,0.486,0.441,0.447,0.219,0.189,north,8.2,Yes
2015/09/08,10:40,0.468,0.274,0.481,0.446,0.442,0.220,0.190,north-northwest,7.3,Yes
2015/09/08,10:50,0.470,0.276,0.486,0.443,0.445,0.218,0.189,north,8.1,Yes
2015/09/08,11:00,0.469,0.275,0.483,0.441,0.443,0.219,0.190,north,7.8,Yes
2015/09/08,11:10,0.467,0.275,0.484,0.445,0.443,0.220,0.189,north,7.5,Yes
2015/09/08,11:20,0.472,0.277,0.484,0.440,0.445,0.219,0.188,north,8.3,Yes
2015/09/08,11:30,0.466,0.274,0.481,0.445,0.442,0.220,0.190,north,6.8,Yes
2015/09/08,11:40,0.470,0.276,0.483,0.442,0.447,0.217,0.189,north,7.9,Yes
2015/09/08,11:50,0.469,0.274,0.479,0.443,0.440,0.220,0.190,north,7.5,Yes
2015/09/08,12:00,0.469,0.276,0.485,0.444,0.446,0.220,0.188,north,8.6,Yes
2015/09/08,12:10,0.470,0.274,0.481,0.441,0.442,0.219,0.189,north,8.5,Yes
2015/09/08,12:20,0.467,0.274,0.483,0.446,0.443,0.221,0.188,north,8.8,Yes
2015/09/08,12:30,0.472,0.275,0.486,0.440,0.445,0.218,0.189,north,8.5,Yes
2015/09/08,12:40,0.465,0.273,0.482,0.445,0.442,0.219,0.189,north,7.0,Yes
2015/09/08,12:50,0.471,0.275,0.484,0.443,0.446,0.218,0.187,north,7.9,Yes
2015/09/08,13:00,0.468,0.272,0.480,0.441,0.440,0.218,0.188,north-northwest,7.2,Yes
2015/09/08,13:10,0.466,0.275,0.484,0.445,0.446,0.219,0.187,north,7.0,Yes
2015/09/08,13:20,0.469,0.271,0.480,0.440,0.441,0.216,0.189,north,8.3,Yes
2015/09/08,13:30,0.467,0.274,0.481,0.445,0.442,0.218,0.187,north,7.8,Yes
2015/09/08,13:40,0.470,0.273,0.486,0.443,0.443,0.216,0.187,north-northwest,7.3,Yes
2015/09/08,13:50,0.465,0.273,0.479,0.443,0.441,0.218,0.186,north,8.1,Yes
2015/09/08,14:00,0.469,0.273,0.485,0.442,0.444,0.217,0.187,north,10.4,Yes
2015/09/08,14:10,0.468,0.271,0.480,0.440,0.440,0.217,0.187,north,9.8,Yes
2015/09/08,14:20,0.467,0.274,0.484,0.443,0.442,0.216,0.185,north,8.6,Yes
2015/09/08,14:30,0.469,0.272,0.481,0.440,0.440,0.216,0.186,north,8.9,Yes
2015/09/08,14:40,0.465,0.273,0.480,0.444,0.443,0.217,0.186,north,8.3,Yes
2015/09/08,14:50,0.468,0.272,0.483,0.442,0.442,0.216,0.186,north,8.1,Yes
2015/09/08,15:00,0.463,0.270,0.479,0.441,0.438,0.217,0.185,north,8.7,Yes
2015/09/08,15:10,0.468,0.273,0.483,0.442,0.443,0.216,0.186,north,7.1,Yes
2015/09/08,15:20,0.464,0.272,0.476,0.438,0.438,0.216,0.186,north,9.6,Yes
2015/09/08,15:30,0.466,0.274,0.479,0.443,0.443,0.216,0.184,north,7.5,Yes
2015/09/08,15:40,0.465,0.271,0.478,0.436,0.438,0.217,0.186,north,7.1,Yes
2015/09/08,15:50,0.464,0.274,0.478,0.441,0.443,0.217,0.185,north,7.0,Yes
2015/09/08,16:00,0.466,0.272,0.481,0.440,0.440,0.215,0.187,north,6.9,Yes
2015/09/08,16:10,0.462,0.273,0.473,0.437,0.440,0.216,0.185,north-northwest,7.0,Yes
2015/09/08,16:20,0.466,0.270,0.480,0.441,0.441,0.216,0.187,north-northwest,7.3,Yes
2015/09/08,16:30,0.463,0.272,0.476,0.437,0.440,0.217,0.186,north,8.3,Yes
2015/09/08,16:40,0.464,0.272,0.479,0.440,0.442,0.216,0.186,north,8.1,Yes
2015/09/08,16:50,0.464,0.272,0.475,0.437,0.437,0.215,0.184,north-northwest,8.1,Yes
2015/09/08,17:00,0.462,0.272,0.476,0.441,0.442,0.216,0.186,north-northwest,8.1,Yes
2015/09/08,17:10,0.465,0.270,0.479,0.438,0.437,0.214,0.184,north-northwest,8.1,Yes
2015/09/08,17:20,0.460,0.272,0.476,0.438,0.441,0.215,0.185,north-northwest,8.6,Yes
2015/09/08,17:30,0.466,0.271,0.479,0.440,0.439,0.215,0.185,north,8.1,Yes
2015/09/08,17:40,0.461,0.271,0.475,0.436,0.441,0.215,0.185,north-northwest,7.0,Yes
2015/09/08,17:50,0.466,0.270,0.480,0.441,0.441,0.216,0.185,north,7.8,Yes
2015/09/08,18:00,0.464,0.271,0.478,0.438,0.441,0.214,0.184,north,7.3,Yes
2015/09/08,18:10,0.463,0.272,0.478,0.442,0.442,0.215,0.184,north,9.2,Yes
2015/09/08,18:20,0.465,0.270,0.481,0.438,0.439,0.214,0.185,north,8.0,Yes
2015/09/08,18:30,0.465,0.272,0.478,0.441,0.442,0.215,0.187,north,5.8,Yes
2015/09/08,18:40,0.470,0.270,0.482,0.443,0.438,0.213,0.184,north,7.5,Yes
2015/09/08,18:50,0.464,0.271,0.477,0.439,0.443,0.216,0.186,north,7.0,Yes
2015/09/08,19:00,0.464,0.269,0.480,0.442,0.438,0.215,0.184,north,6.4,Yes
2015/09/08,19:10,0.463,0.269,0.476,0.436,0.441,0.215,0.185,north,8.7,Yes
2015/09/08,19:20,0.463,0.273,0.478,0.441,0.441,0.214,0.186,north,9.0,Yes
2015/09/08,19:30,0.465,0.269,0.479,0.437,0.440,0.215,0.185,north,6.8,Yes
2015/09/08,19:40,0.459,0.271,0.474,0.440,0.442,0.216,0.185,north,7.1,Yes
2015/09/08,19:50,0.465,0.270,0.480,0.441,0.437,0.214,0.186,north,7.1,Yes
2015/09/08,20:00,0.459,0.272,0.474,0.437,0.441,0.215,0.185,north,7.8,Yes
2015/09/08,20:10,0.464,0.268,0.479,0.441,0.436,0.215,0.184,north,7.7,Yes
2015/09/08,20:20,0.462,0.272,0.477,0.436,0.440,0.215,0.185,north,9.2,Yes
2015/09/08,20:30,0.460,0.270,0.476,0.439,0.439,0.216,0.184,north,8.1,Yes
2015/09/08,20:40,0.463,0.271,0.476,0.435,0.440,0.214,0.186,north,7.6,Yes
2015/09/08,20:50,0.459,0.271,0.472,0.439,0.441,0.215,0.185,north,7.5,Yes
2015/09/08,21:00,0.466,0.269,0.480,0.440,0.439,0.214,0.185,north,8.1,Yes
2015/09/08,21:10,0.459,0.271,0.474,0.437,0.442,0.214,0.185,north-northwest,6.6,Yes
2015/09/08,21:20,0.462,0.269,0.477,0.439,0.437,0.215,0.185,north-northwest,6.8,Yes
2015/09/08,21:30,0.463,0.271,0.476,0.434,0.441,0.214,0.185,north,7.8,Yes
2015/09/08,21:40,0.460,0.270,0.474,0.436,0.437,0.215,0.185,north,7.7,Yes
2015/09/08,21:50,0.462,0.271,0.479,0.433,0.442,0.215,0.186,north,7.9,Yes
2015/09/08,22:00,0.461,0.272,0.472,0.438,0.438,0.216,0.185,north,9.0,Yes
2015/09/08,22:10,0.465,0.270,0.479,0.439,0.439,0.214,0.185,north,9.4,Yes
2015/09/08,22:20,0.462,0.271,0.474,0.437,0.442,0.215,0.186,north,8.3,Yes
2015/09/08,22:30,0.464,0.269,0.480,0.441,0.438,0.215,0.185,north,7.0,Yes
2015/09/08,22:40,0.461,0.271,0.477,0.435,0.442,0.213,0.183,north,7.9,Yes
2015/09/08,22:50,0.458,0.268,0.474,0.440,0.436,0.213,0.184,north,8.5,Yes
2015/09/08,23:00,0.460,0.270,0.475,0.433,0.441,0.212,0.182,north-northwest,7.0,Yes
2015/09/08,23:10,0.454,0.270,0.471,0.434,0.434,0.213,0.184,north-northwest,6.8,Yes
2015/09/08,23:20,0.461,0.269,0.476,0.435,0.439,0.212,0.183,north-northwest,7.6,Yes
2015/09/08,23:30,0.456,0.269,0.470,0.432,0.436,0.213,0.183,north-northwest,8.3,Yes
2015/09/08,23:40,0.459,0.268,0.474,0.435,0.437,0.212,0.183,north-northwest,8.9,Yes
2015/09/08,23:50,0.459,0.270,0.473,0.432,0.439,0.212,0.183,north,9.5,Yes
